星链-32773 (STARLINK-32773)

导读

STARLINK-32773是美国太空探索技术公司SpaceX于2025年1月10日发射的星链(Starlink)低轨互联网卫星,属于第二代迷你版星链卫星(V2 Mini)。这类卫星重量约800公斤,采用升级相控阵天线与E频段回传技术,搭载氩霍尔推进器,大幅提升带宽与连接稳定性,为全球尤其是偏远地区提供高速互联网接入服务,是星链星座组网扩容的一部分。

Basic Information
目录编号:
62571
目录名称:
STARLINK-32773
国际标识:
2025-006T
轨道中心:
EARTH
卫星名称:
星链-32773
卫星全名:
星链-32773 (STARLINK-32773)
卫星状态:
在轨 (已飞行602 天)
发射日期:
2025-01-10 UTC
国别 :
美国 (US)
星等 :
--
Orbit Information
数据来源 国际轨道数据
星历时间: 2026-09-03T17:43:10+0800
1天前
查看轨道信息
半长轴: 6861.257km
偏心率: 0.0001444
轨道倾角: 43.004°
近地点辐角 260.569°
升交点赤经 8.782°
平近点角 99.500°
近地点: 482.129km
远地点: 484.111km
周期: 94.268分钟
每日圈数: 15.275566
Detailed Information
固有亮度:
5
最大亮度:
2.5
卫星平台:
Starlink V1.0
覆盖范围:
全球
运营商:
太空探索技术公司
运营商所在国:
美国
制造商(研发单位):
太空探索技术公司
制造商所在国:
美国
使用方式:
暂无
Satellite Introduction
Starlink 计划是 SpaceX 推出的全球卫星互联网项目,通过发射低轨道卫星,为全球尤其是偏远地区提供高速、低延迟的互联网服务。自 2019 年起,Starlink 已部署数千颗卫星,旨在缩小全球数字鸿沟,推动互联网普及。该项目还为军事、航空等行业提供通信支持,带来广泛经济效益。
2D Orbit Map
3D Orbit Map
Orbit Altitude Analysis Chart
Orbit Inclination Analysis Chart
Orbit Comprehensive Analysis Chart
View Comprehensive Chart
Conjunction Data List
Event ID Objects TCA Miss Dist (km) Collision Risk Probability Collision Risk Index (CRI) Action
CDM_260906-204005-603706-257121
2026-09-06T
20:40:34+0000
0.700 km
远距离
5.599995E-5 中风险 0.7
CDM_260906-221405-603706-257121
2026-09-06T
22:14:44+0000
0.922 km
远距离
2.299268E-5 中风险 0.62
CDM_260905-124806-257106-763421
2026-09-05T
12:48:10+0000
1.070 km
极远距离
1.640816E-5 中风险 0.59
CDM_260907-002006-257106-327921
2026-09-07T
00:20:03+0000
1.023 km
极远距离
1.13242E-5 中风险 0.56
CDM_260905-010206-257106-763421
2026-09-05T
01:02:00+0000
1.190 km
极远距离
1.131028E-5 中风险 0.56
CDM_260907-041506-257106-327921
2026-09-07T
04:15:27+0000
1.490 km
极远距离
3.20878E-6 低风险 0.45
CDM_260830-062906-257106-323021
2026-08-30T
06:29:14+0000
2.043 km
极远距离
2.391794E-6 低风险 0.43
CDM_260905-023606-257106-763421
2026-09-05T
02:36:10+0000
1.952 km
极远距离
2.391787E-6 低风险 0.43
CDM_260905-055006-257106-863021
STPSAT-7 (68630)
2026-09-05T
05:50:54+0000
2.432 km
极远距离
1.528844E-6 低风险 0.39
CDM_260906-190605-603706-257121
2026-09-06T
19:06:25+0000
2.297 km
极远距离
1.415952E-6 低风险 0.38